User: anonymous   Login
Location: Mactaquac Provincial Park
(45.9573°N, 66.8897°W)
Time: 18:31:20
(UTC-03:00)
Language:

Cosmos 1867 - Orbit

View from above orbital plane
View from above orbital plane
View from above satellite
View from above satellite

Ground track
Ground track

The orbit data is extracted from the following two-line orbital elements,

1 18187U 87060A   17233.01207754 -.00000105  00000-0 -18731-5 0  9991
2 18187  65.0107  47.3868 0013667 267.0914  92.8606 14.31087212573278
Epoch (UTC): 21 August 2017 00:17:23
Eccentricity: 0.0013667
inclination: 65.0107°
perigee height: 778 km
apogee height: 798 km
right ascension of ascending node: 47.3868°
argument of perigee: 267.0914°
revolutions per day: 14.31087212
mean anomaly at epoch: 92.8606°
orbit number at epoch: 57327

The dashed part of the orbit path shows where the satellite is in the earth's shadow,  

DLR